Flag for Ukraine Weather past 2 weeks in Kyiv, Ukraine

Now
52 °F

Clear.


Feels Like: 52 °F
Forecast: 61 / 78 °F
Wind: No wind

Location: Kyiv

Current Time: Aug 31, 2014 at 3:18:51 AM

Latest Report: Aug 31, 2014 at 3:00 AM


Visibility: 10 mi

Pressure: 30.04 "Hg

Humidity: 94%

Dew point: 50 °F

Location of KyivLocation

Historic Weather in Kyiv — Graph

°F

Kyiv temperature yesterday

Maximum temperature yesterday: 75 °F (at 4:00 PM)
Minimum temperature yesterday: 46 °F (at 3:00 AM)
Average temperature yesterday: 60 °F

Past Weeks' High & Low Weather Summary

 TemperatureHumidityPressure
High84 °F (Aug 20, 3:30 PM)100% (Aug 16, 3:00 AM)30.12 "Hg (Aug 16, 3:00 AM)
Low43 °F (Aug 26, 6:00 AM)35% (Aug 20, 3:30 PM)29.71 "Hg (Aug 24, 9:30 PM)
Average63 °F72%29.94 "Hg
* Reported Aug 16 2:00 AM — Aug 31 2:00 AM, Kyiv, Weather by CustomWeather, © 2014

Note: Actual official high and low records may vary slightly from our data, if they occured in-between our weather recording intervals... More about our weather records

Advertising

Kyiv weather history for previous 24 hours

 ConditionsComfort  
Time TempWeatherWind HumidityBarometerVisibility
2:00 AM
Aug 31
54 °FClear.No wind88%30.07 "Hg10 mi
1:30 AM55 °FClear.No wind82%30.07 "Hg10 mi
1:00 AM54 °FClear.No wind88%30.07 "Hg10 mi
12:30 AM55 °FClear.1 mph82%30.07 "Hg10 mi
12:00 AM55 °FClear.No wind82%30.07 "Hg10 mi
11:30 PM
Aug 30
55 °FClear.No wind88%30.07 "HgN/A
11:00 PM55 °FClear.1 mph88%30.07 "HgN/A
10:30 PM57 °FClear.No wind82%30.07 "Hg5 mi
10:00 PM57 °FClear.1 mph82%30.07 "Hg4 mi
9:30 PM57 °FClear.3 mph82%30.07 "Hg2 mi
9:00 PM57 °FClear.3 mph82%30.07 "Hg2 mi
8:30 PM59 °FClear.3 mph77%30.07 "Hg1 mi
8:00 PM64 °FClear.3 mph60%30.07 "Hg1 mi
7:30 PM68 °FClear.3 mph53%30.07 "Hg4 mi
7:00 PM72 °FSunny.6 mph44%30.07 "Hg10 mi
6:30 PM72 °FSunny.8 mph47%30.07 "Hg10 mi
6:00 PM73 °FSunny.13 mph44%30.07 "Hg10 mi
5:30 PM73 °FPassing clouds.10 mph44%30.07 "HgN/A
5:00 PM73 °FSunny.13 mph41%30.07 "Hg10 mi
4:30 PM73 °FPassing clouds.10 mph44%30.07 "HgN/A
4:00 PM75 °FPassing clouds.10 mph41%30.07 "HgN/A
3:30 PM73 °FPassing clouds.10 mph44%30.09 "HgN/A
3:00 PM73 °FPassing clouds.10 mph44%30.09 "HgN/A
2:30 PM72 °FPassing clouds.13 mph50%30.09 "HgN/A
2:00 PM73 °FPassing clouds.13 mph47%30.09 "HgN/A
1:30 PM72 °FPassing clouds.10 mph50%30.09 "HgN/A
1:00 PM72 °FPassing clouds.10 mph53%30.09 "HgN/A
12:30 PM72 °FPassing clouds.10 mph50%30.09 "HgN/A
12:00 PM70 °FPassing clouds.8 mph53%30.12 "HgN/A
11:30 AM70 °FSunny.8 mph50%30.12 "Hg10 mi
11:00 AM68 °FPassing clouds.8 mph53%30.12 "HgN/A
10:30 AM66 °FPassing clouds.6 mph56%30.12 "HgN/A
10:00 AM64 °FSunny.6 mph64%30.12 "Hg10 mi
9:30 AM61 °FPassing clouds.3 mph72%30.12 "HgN/A
9:00 AM59 °FSunny.3 mph77%30.12 "Hg10 mi
8:30 AM57 °FSunny.3 mph82%30.12 "Hg10 mi
8:00 AM54 °FSunny.3 mph88%30.12 "Hg10 mi
7:30 AM52 °FSunny.3 mph94%30.12 "Hg10 mi
7:00 AM48 °FClear.3 mph94%30.12 "Hg10 mi
6:30 AM46 °FClear.3 mph100%30.09 "Hg10 mi
6:00 AM48 °FClear.3 mph94%30.09 "Hg10 mi
5:30 AM46 °FClear.3 mph100%30.09 "Hg10 mi
5:00 AM46 °FClear.3 mph100%30.09 "Hg10 mi
4:30 AM46 °FClear.3 mph100%30.09 "Hg10 mi
4:00 AM46 °FClear.3 mph100%30.09 "Hg10 mi
3:30 AM46 °FClear.1 mph100%30.09 "Hg10 mi
3:00 AM46 °FClear.3 mph100%30.09 "Hg10 mi
Weather by CustomWeather, © 2014

See weather overviewHow to use our weather pages